Weather History for Palmdale - Butte, CA

Change the Weather History Date:

Monday, November 4, 2013

  Actual Average (KPMD) Record (KPMD)
Temperature  
Mean Temperature 51 °F 56 °F  
Max Temperature 62 °F 71 °F 84 °F (1980)
Min Temperature 40 °F 41 °F 21 °F (1935)
Degree Days  
Heating Degree Days 14 9  
Month to date heating degree days 34  
Since 1 July heating degree days 161  
Cooling Degree Days 0 0  
Month to date cooling degree days 0  
Year to date cooling degree days 1814  
Growing Degree Days 1 (Base 50)    
Moisture  
Dew Point 25 °F    
Average Humidity 36    
Maximum Humidity 58    
Minimum Humidity 20    
Precipitation  
Precipitation 0.00 in 0.02 in 0.20 in (1987)
Month to date precipitation 0.15  
Year to date precipitation 6.60  
Since 1 July precipitation 1.28  
Snow  
Snow 0.00 in - - ()
Month to date snowfall  
Since 1 July snowfall  
Since 1 September snowfall  
Snow Depth -    
Sea Level Pressure  
Sea Level Pressure 29.92 in    
Wind  
Wind Speed 6 mph (West)    
Max Wind Speed 10 mph    
Max Gust Speed 14 mph    
Visibility 10 miles    
Events      
T = Trace of Precipitation, MM = Missing Value Source: NWS Daily Summary

Daily Weather History Graph

Daily Weather History Graph

Search for Another Location

Airport:

Trip Planner

Search our weather history database for the weather conditions in past years. The results will help you decide how hot, cold, wet, or windy it might be!

Date:

Astronomy

Nov. 04, 2013 Rise Set
Actual Time 6:14 AM PST 4:53 PM PST
Civil Twilight 5:47 AM PST 5:20 PM PST
Nautical Twilight 5:18 AM PST 5:50 PM PST
Astronomical Twilight 4:48 AM PST 6:19 PM PST
Moon 7:27 AM PST (11/4) 6:05 PM PST (11/4)
Length of Visible Light 11h 32m
Length of Day
10h 39m
New Moon, 2% of the Moon is Illuminated
Nov 4
New Moon
Nov 9
First Quarter
Nov 17
Full
Nov 25
Last Quarter
Dec 2
New

Hourly Weather History & Observations

Time (PST) Temp. Windchill Dew Point Humidity Pressure Visibility Wind Dir Wind Speed Gust Speed Precip Events Conditions
12:55 AM - - - N/A% - - North - - N/A   Unknown
1:55 AM - - - N/A% - - North - - N/A   Unknown
7:46 AM 48.2 °F - 33.8 °F 58% 29.89 in 10.0 mi South 3.5 mph - N/A   Mostly Cloudy
7:55 AM 49.1 °F - 33.8 °F 56% 29.89 in 10.0 mi SW 2.3 mph - N/A   Mostly Cloudy
8:26 AM 50.0 °F - 32.0 °F 50% 29.90 in 10.0 mi WNW 8.1 mph - N/A   Mostly Cloudy
8:52 AM 51.8 °F - 32.0 °F 47% 29.91 in 10.0 mi West 6.9 mph - N/A   Scattered Clouds
8:55 AM 52.5 °F - 32.5 °F 47% 29.91 in 10.0 mi West 8.1 mph - N/A   Scattered Clouds
9:55 AM 55.0 °F - 27.7 °F 35% 29.91 in 10.0 mi WNW 10.4 mph - N/A   Mostly Cloudy
10:55 AM 56.5 °F - 25.9 °F 31% 29.89 in 10.0 mi NW 10.4 mph - N/A   Clear
11:55 AM 59.2 °F - 26.1 °F 28% 29.87 in 10.0 mi WNW 6.9 mph 13.8 mph N/A   Clear
12:55 PM 59.9 °F - 27.1 °F 29% 29.86 in 10.0 mi NNW 9.2 mph - N/A   Clear
1:55 PM 61.7 °F - 26.4 °F 26% 29.85 in 10.0 mi North 6.9 mph - N/A   Clear
2:55 PM 61.9 °F - 23.5 °F 23% 29.85 in 10.0 mi Variable 2.3 mph - N/A   Clear
3:55 PM 62.1 °F - 20.7 °F 20% 29.85 in 10.0 mi North 5.8 mph - N/A   Clear
4:55 PM 59.7 °F - 21.0 °F 22% 29.88 in 10.0 mi NNE 4.6 mph - N/A   Clear
5:55 PM 57.0 °F - 17.1 °F 21% 29.92 in 10.0 mi NE 4.6 mph - N/A   Clear
6:55 PM 50.2 °F - 22.5 °F 34% 29.96 in 10.0 mi WSW 3.5 mph - N/A   Clear
7:55 PM 46.2 °F 43.3 °F 22.3 °F 39% 29.99 in 10.0 mi WSW 5.8 mph - N/A   Clear
8:55 PM 43.3 °F 40.7 °F 20.7 °F 40% 30.01 in 10.0 mi South 4.6 mph - N/A   Clear
9:55 PM 41.0 °F 38.0 °F 18.0 °F 40% 30.03 in 10.0 mi SSE 4.6 mph - N/A   Clear
10:55 PM 40.6 °F 36.7 °F 18.3 °F 41% 30.04 in 10.0 mi South 5.8 mph - N/A   Clear
11:55 PM 40.5 °F 37.3 °F 18.3 °F 41% 30.05 in 10.0 mi Variable 4.6 mph - N/A   Clear